UAL1204 KMYR-KIAD

Flight info

Callsign UAL1204
Flight time N/A
Altitude 33000
Route MOKKA FAY RDU BZNGA DORRN CAVLR6
Aircraft B738/M-SDE2E3FGHIRWXY/LB1

Departure

Time 2026-04-26 03:59
Airport Myrtle Beach International Airport (KMYR)

Arrival

Time N/A
Airport Washington Dulles International Airport (KIAD)
Time Latitude Longitude Altitude Speed Heading
2026-04-26 03:38 33.68076 -78.92421 29 ft 0 kts 169°
2026-04-26 03:47 33.68090 -78.92424 30 ft 2 kts 169°
2026-04-26 03:47 33.68106 -78.92428 28 ft 2 kts 169°
2026-04-26 03:47 33.68122 -78.92431 29 ft 2 kts 169°
2026-04-26 03:47 33.68137 -78.92435 29 ft 0 kts 169°
2026-04-26 03:51 33.68134 -78.92438 30 ft 1 kts 216°
2026-04-26 03:52 33.68127 -78.92456 30 ft 4 kts 243°
2026-04-26 03:52 33.68114 -78.92499 31 ft 6 kts 254°
2026-04-26 03:52 33.68102 -78.92553 31 ft 7 kts 256°
2026-04-26 03:52 33.68092 -78.92610 31 ft 7 kts 258°
2026-04-26 03:53 33.68060 -78.92647 31 ft 7 kts 179°
2026-04-26 03:53 33.68008 -78.92635 31 ft 8 kts 168°
2026-04-26 03:53 33.67946 -78.92619 31 ft 10 kts 168°
2026-04-26 03:53 33.67879 -78.92603 31 ft 10 kts 169°
2026-04-26 03:54 33.67813 -78.92587 30 ft 10 kts 169°
2026-04-26 03:54 33.67749 -78.92572 31 ft 9 kts 169°
2026-04-26 03:54 33.67686 -78.92557 31 ft 9 kts 169°
2026-04-26 03:54 33.67620 -78.92542 31 ft 10 kts 169°
2026-04-26 03:55 33.67549 -78.92525 31 ft 11 kts 169°
2026-04-26 03:55 33.67470 -78.92506 31 ft 12 kts 169°
2026-04-26 03:55 33.67386 -78.92486 31 ft 13 kts 167°
2026-04-26 03:55 33.67295 -78.92463 31 ft 14 kts 167°
2026-04-26 03:56 33.67205 -78.92438 31 ft 13 kts 167°
2026-04-26 03:56 33.67119 -78.92411 31 ft 13 kts 155°
2026-04-26 03:56 33.67045 -78.92357 31 ft 12 kts 158°
2026-04-26 03:56 33.66962 -78.92335 31 ft 12 kts 169°
2026-04-26 03:57 33.66880 -78.92316 31 ft 12 kts 169°
2026-04-26 03:57 33.66802 -78.92294 31 ft 11 kts 165°
2026-04-26 03:57 33.66741 -78.92328 31 ft 11 kts 252°
2026-04-26 03:57 33.66725 -78.92418 32 ft 11 kts 258°
2026-04-26 03:58 33.66722 -78.92505 33 ft 11 kts 303°
2026-04-26 03:58 33.66764 -78.92530 33 ft 0 kts 346°
2026-04-26 03:59 33.66774 -78.92533 33 ft 6 kts 346°
2026-04-26 03:59 33.67078 -78.92614 32 ft 89 kts 348°
2026-04-26 03:59 33.67952 -78.92843 45 ft 164 kts 345°
2026-04-26 03:59 33.69151 -78.93116 826 ft 183 kts 347°
2026-04-26 04:00 33.70453 -78.93326 1815 ft 193 kts 350°
2026-04-26 04:00 33.71815 -78.93490 2758 ft 202 kts 351°
2026-04-26 04:00 33.73240 -78.93623 3591 ft 208 kts 352°
2026-04-26 04:00 33.74754 -78.93347 3924 ft 237 kts 18°
2026-04-26 04:01 33.76345 -78.92578 4320 ft 253 kts 18°
2026-04-26 04:01 33.78006 -78.91855 4944 ft 260 kts 15°
2026-04-26 04:01 33.79784 -78.91176 5441 ft 278 kts 14°
2026-04-26 04:01 33.81672 -78.90536 6188 ft 286 kts 12°
2026-04-26 04:02 33.83621 -78.89936 6990 ft 290 kts 11°
2026-04-26 04:02 33.85594 -78.89373 7880 ft 292 kts 11°
2026-04-26 04:02 33.87591 -78.88834 8714 ft 296 kts 10°
2026-04-26 04:02 33.89600 -78.88312 9533 ft 300 kts 10°
2026-04-26 04:03 33.91659 -78.87792 10297 ft 306 kts 10°
2026-04-26 04:03 33.93822 -78.87257 10557 ft 330 kts 10°
2026-04-26 04:03 33.96155 -78.86686 10852 ft 351 kts 10°
2026-04-26 04:03 33.98572 -78.86097 11488 ft 358 kts 10°
2026-04-26 04:04 34.01025 -78.85499 12280 ft 360 kts
2026-04-26 04:04 34.03491 -78.84900 13066 ft 363 kts
2026-04-26 04:04 34.05980 -78.84295 13818 ft 367 kts
2026-04-26 04:04 34.08500 -78.83684 14494 ft 371 kts
2026-04-26 04:05 34.11044 -78.83066 15170 ft 375 kts
2026-04-26 04:05 34.13610 -78.82444 15852 ft 378 kts
2026-04-26 04:05 34.16204 -78.81814 16527 ft 381 kts
2026-04-26 04:05 34.18825 -78.81177 17179 ft 385 kts
2026-04-26 04:06 34.21430 -78.80543 17824 ft 389 kts
2026-04-26 04:06 34.24100 -78.79893 18460 ft 392 kts
2026-04-26 04:06 34.26778 -78.79241 19040 ft 394 kts
2026-04-26 04:06 34.29490 -78.78761 19623 ft 394 kts 360°
2026-04-26 04:07 34.32220 -78.78837 20198 ft 392 kts 351°
2026-04-26 04:07 34.34939 -78.79179 20776 ft 394 kts 350°
2026-04-26 04:07 34.37673 -78.79562 21311 ft 397 kts 350°
2026-04-26 04:07 34.40427 -78.79951 21835 ft 400 kts 350°
2026-04-26 04:08 34.43208 -78.80335 22357 ft 403 kts 350°
2026-04-26 04:08 34.46011 -78.80711 22874 ft 406 kts 350°
2026-04-26 04:08 34.48826 -78.81082 23385 ft 408 kts 351°
2026-04-26 04:08 34.51663 -78.81449 23820 ft 411 kts 351°
2026-04-26 04:09 34.54526 -78.81818 24199 ft 415 kts 351°
2026-04-26 04:09 34.57407 -78.82188 24589 ft 419 kts 351°
2026-04-26 04:09 34.60317 -78.82561 24981 ft 422 kts 351°
2026-04-26 04:09 34.63243 -78.82937 25371 ft 425 kts 351°
2026-04-26 04:10 34.66157 -78.83311 25752 ft 428 kts 351°
2026-04-26 04:10 34.69164 -78.83698 26145 ft 430 kts 351°
2026-04-26 04:10 34.72107 -78.84077 26500 ft 433 kts 351°
2026-04-26 04:10 34.75126 -78.84466 26848 ft 436 kts 351°
2026-04-26 04:11 34.78155 -78.84856 27223 ft 439 kts 351°
2026-04-26 04:11 34.81203 -78.85250 27597 ft 441 kts 351°
2026-04-26 04:11 34.84266 -78.85645 27940 ft 444 kts 351°
2026-04-26 04:11 34.87349 -78.86044 28283 ft 447 kts 351°
2026-04-26 04:12 34.90446 -78.86444 28727 ft 447 kts 350°
2026-04-26 04:12 34.92494 -78.86708 29090 ft 445 kts 350°
2026-04-26 04:12 34.95572 -78.87106 29619 ft 443 kts 350°
2026-04-26 04:12 34.98653 -78.87444 30069 ft 445 kts 354°
2026-04-26 04:13 35.01765 -78.87327 30423 ft 448 kts
2026-04-26 04:13 35.05876 -78.86898 30987 ft 446 kts
2026-04-26 04:13 35.07969 -78.86652 31262 ft 445 kts
2026-04-26 04:13 35.11012 -78.86293 31638 ft 445 kts
2026-04-26 04:14 35.14094 -78.85940 31986 ft 445 kts
2026-04-26 04:14 35.17179 -78.85601 32355 ft 444 kts
2026-04-26 04:14 35.20256 -78.85272 32760 ft 442 kts
2026-04-26 04:14 35.23330 -78.84952 32937 ft 446 kts
2026-04-26 04:15 35.26440 -78.84632 32930 ft 449 kts
2026-04-26 04:15 35.32644 -78.83992 32947 ft 442 kts
2026-04-26 04:16 35.38751 -78.83360 32973 ft 441 kts
2026-04-26 04:16 35.44843 -78.82730 32969 ft 442 kts
2026-04-26 04:17 35.50999 -78.82092 32961 ft 444 kts
2026-04-26 04:17 35.57155 -78.81451 32947 ft 445 kts
2026-04-26 04:18 35.63335 -78.80807 32934 ft 445 kts
2026-04-26 04:18 35.69507 -78.80162 32935 ft 444 kts